Tracking 30995 objects as of 5-Jul-2025
HD Live streaming from Space Station
objects crossing your sky now

STARLINK-5375

Track STARLINK-5375 now!
10-day predictions
STARLINK-5375 is classified as:


NORAD ID: 56140
Int'l Code: 2023-046BA
Perigee: 565.3 km
Apogee: 567.1 km
Inclination: 43.0 °
Period: 95.8 minutes
Semi major axis: 6937 km
RCS: Unknown
Launch date: March 29, 2023
Source: United States (US)
Launch site: AIR FORCE EASTERN TEST RANGE (AFETR)
Your satellite tracking list
Your tracking list is empty




NASA's NSSDC Master Catalog

Two Line Element Set (TLE):
1 56140U 23046BA  25186.59554283  .00000177  00000-0  28181-4 0  9993
2 56140  43.0053  48.5215 0001307 266.5837  93.4856 15.02538617125041
Source of the keplerian elements: AFSPC